Weather History for El Dorado, AR

Change the Weather History Date:

Friday, June 14, 2013

  Actual Average Record
Temperature  
Mean Temperature 79 °F 78 °F  
Max Temperature 89 °F 89 °F 99 °F (1936)
Min Temperature 69 °F 67 °F 54 °F (1933)
Degree Days  
Heating Degree Days 0 0  
Month to date heating degree days 0 0  
Since 1 June heating degree days 0 0  
Since 1 July heating degree days 2712 2673  
Cooling Degree Days 14 13  
Month to date cooling degree days 164 164  
Year to date cooling degree days 442 475  
Since 1 June cooling degree days 164 164  
Growing Degree Days 31 (Base 50)    
Moisture  
Dew Point 71 °F    
Average Humidity 73    
Maximum Humidity 91    
Minimum Humidity 55    
Precipitation  
Precipitation 0.00 in 0.18 in 1.62 in (1989)
Month to date precipitation 3.81 2.14  
Year to date precipitation 20.90 25.12  
Snow  
Snow 0.00 in - - ()
Month to date snowfall 0.0  
Since 1 June snowfall 0.0  
Since 1 July snowfall 0.1  
Snow Depth 0.00 in    
Sea Level Pressure  
Sea Level Pressure 29.97 in    
Wind  
Wind Speed 5 mph (ENE)    
Max Wind Speed 13 mph    
Max Gust Speed 16 mph    
Visibility 10 miles    
Events      
T = Trace of Precipitation, MM = Missing Value Source: NWS Daily Summary

Daily Weather History Graph

Daily Weather History Graph

Search for Another Location

Airport:

Trip Planner

Search our weather history database for the weather conditions in past years. The results will help you decide how hot, cold, wet, or windy it might be!

Date:

Astronomy

Jun. 14, 2013 Rise Set
Actual Time 6:01 AM CDT 8:21 PM CDT
Civil Twilight 5:32 AM CDT 8:50 PM CDT
Nautical Twilight 4:57 AM CDT 9:25 PM CDT
Astronomical Twilight 4:18 AM CDT 10:04 PM CDT
Moon 11:22 AM CDT (6/14) No Moon Set
Length of Visible Light 15h 17m
Length of Day
14h 20m
Waxing Crescent, 30% of the Moon is Illuminated
Jun 14
Waxing Crescent
Jun 16
First Quarter
Jun 23
Full
Jun 29
Last Quarter
Jul 8
New

Hourly Weather History & Observations

Time (CDT) Temp. Heat Index Dew Point Humidity Pressure Visibility Wind Dir Wind Speed Gust Speed Precip Events Conditions
12:53 AM 79.0 °F - 75.0 °F 88% 29.93 in 10.0 mi Calm Calm - N/A   Mostly Cloudy
1:53 AM 80.1 °F 85.1 °F 75.0 °F 85% 29.93 in 9.0 mi Calm Calm - N/A   Mostly Cloudy
2:53 AM 78.1 °F - 73.9 °F 87% 29.93 in 10.0 mi NE 3.5 mph - N/A   Clear
3:53 AM 78.1 °F - 71.1 °F 79% 29.93 in 10.0 mi ENE 8.1 mph - N/A   Clear
4:53 AM 77.0 °F - 69.1 °F 76% 29.95 in 10.0 mi ENE 9.2 mph - N/A   Clear
5:53 AM 75.9 °F - 68.0 °F 76% 29.97 in 10.0 mi East 3.5 mph - N/A   Mostly Cloudy
6:53 AM 75.0 °F - 69.1 °F 82% 29.99 in 10.0 mi NE 3.5 mph - N/A   Partly Cloudy
7:53 AM 78.1 °F - 69.1 °F 74% 30.00 in 10.0 mi NE 5.8 mph - N/A   Clear
8:53 AM 80.1 °F 83.2 °F 70.0 °F 71% 29.99 in 10.0 mi ENE 6.9 mph - N/A   Clear
9:53 AM 82.0 °F 85.5 °F 69.1 °F 65% 30.00 in 10.0 mi ENE 6.9 mph - N/A   Clear
10:53 AM 84.0 °F 87.8 °F 69.1 °F 61% 30.00 in 10.0 mi ENE 8.1 mph - N/A   Clear
11:53 AM 86.0 °F 91.5 °F 71.1 °F 61% 30.01 in 10.0 mi NNE 9.2 mph - N/A   Clear
12:53 PM 87.1 °F 92.8 °F 71.1 °F 59% 29.99 in 10.0 mi East 8.1 mph - N/A   Clear
1:53 PM 88.0 °F 94.7 °F 72.0 °F 59% 29.99 in 10.0 mi ENE 9.2 mph - N/A   Partly Cloudy
2:53 PM 88.0 °F 92.9 °F 70.0 °F 55% 29.97 in 10.0 mi Variable 5.8 mph - N/A   Partly Cloudy
3:53 PM 89.1 °F 95.0 °F 71.1 °F 55% 29.95 in 10.0 mi NE 8.1 mph - N/A   Clear
4:53 PM 89.1 °F 95.0 °F 71.1 °F 55% 29.94 in 10.0 mi NE 4.6 mph - N/A   Clear
5:53 PM 88.0 °F 92.9 °F 70.0 °F 55% 29.94 in 10.0 mi ENE 8.1 mph - N/A   Clear
6:53 PM 86.0 °F 91.5 °F 71.1 °F 61% 29.94 in 10.0 mi ENE 5.8 mph - N/A   Clear
7:53 PM 81.0 °F 85.2 °F 72.0 °F 74% 29.94 in 10.0 mi NE 3.5 mph - N/A   Clear
8:53 PM 77.0 °F - 70.0 °F 79% 29.94 in 10.0 mi Calm Calm - N/A   Clear
9:53 PM 73.9 °F - 69.1 °F 85% 29.97 in 10.0 mi Calm Calm - N/A   Clear
10:53 PM 73.0 °F - 69.1 °F 87% 29.98 in 10.0 mi Calm Calm - N/A   Clear
11:53 PM 71.1 °F - 68.0 °F 90% 30.00 in 10.0 mi Calm Calm - N/A   Clear